CAPELLA-3 (WHITNEY) (47489 NORAD) Tracking and Keplerian Element Data

This shows tracking and keplerian element data for the satellite.

Feedback or suggestion? Click here.




ElementValue
Catalog47489
NameCAPELLA-3 (WHITNEY)
Epoch Orbit1259
Epoch Day105.91311114
Epoch Year2021
RAAN168.2469
Inclination97.499
Eccentricity0.0008293
Argument of Perigee329.6198
Mean Anonmoly30.4551
Mean Motion15.12707803
Decay Rate3.404E-05
L11 47489U 21006CE 21105.91311114 .00003404 00000-0 19801-3 0 9994
L22 47489 97.4990 168.2469 0008293 329.6198 30.4551 15.12707803 12597

Live tracking and technical data element details for CAPELLA-3 (WHITNEY) (NORAD 47489). CAPELLA-3 (WHITNEY) can be tracked NOW for your location showing map with azimuth and elevation plus other details from your city location.

Track the satellite on the map from your city or location and see movement details for azimuth, elevation, latitude, longitude, range, height, and movement on the map or in text.







IsCatalogInMostPopularTable: catalog: 47489, numindb: 14
Update: records affected: 1



GetName: 47489 CAPELLA-3 (WHITNEY)

Hit Count: updated at: Fri, 16 Apr 2021 11:09:33 GMT